Home > Weather > Lünen > Past weeks

Flag for Germany Past Weather in Lünen, North Rhine-Westphalia, Germany — Yesterday and Last 2 Weeks

Now
63 °F

Scattered clouds.


Feels Like: 63 °F
Forecast: 60 / 70 °F
Wind: 8 mph from Southwest

Location: Dortmund / Wickede

Current Time: Jul 29, 2016 at 9:59:05 AM

Latest Report: Jul 29, 2016 at 8:50 AM


Visibility: 6 mi

Pressure: 29.92 "Hg

Humidity: 77%

Dew Point: 55 °F

Location of LünenLocation

Past Weather in Lünen — Graph

°F

Lünen Temperature Yesterday

Maximum temperature yesterday: 70 °F (at 5:20 PM)
Minimum temperature yesterday: 61 °F (at 5:20 AM)
Average temperature yesterday: 65 °F

High & Low Weather Summary for the Past Weeks

 TemperatureHumidityPressure
High91 °F (Jul 20, 3:20 PM)88% (Jul 18, 5:20 AM)30.30 "Hg (Jul 18, 5:20 AM)
Low54 °F (Jul 15, 5:20 AM)20% (Jul 20, 5:20 PM)29.86 "Hg (Jul 20, 6:20 PM)
Average70 °F61%30.09 "Hg
* Reported Jul 14 8:20 AM — Jul 29 8:20 AM, Lünen, Weather by CustomWeather, © 2016

Note: Actual official high and low records may vary slightly from our data, if they occured in-between our weather recording intervals... More about our weather records

Advertising

Lünen Weather History for the Previous 24 Hours

Scroll right to see more
 ConditionsComfort  
Time TempWeatherWind HumidityBarometerVisibility
8:20 AM
Fri, Jul 29
61 °FPartly sunny.9 mph83%29.92 "Hg6 mi
7:50 AM61 °FPartly sunny.9 mph83%29.92 "Hg5 mi
7:20 AM59 °FDrizzle. Partly sunny.8 mph88%29.92 "Hg6 mi
6:50 AM59 °FPartly sunny.9 mph82%29.92 "Hg5 mi
6:20 AM59 °FDrizzle. Low clouds.8 mph82%29.92 "Hg4 mi
5:50 AM59 °FLight rain. Fog.12 mph82%29.92 "Hg2 mi
5:20 AM59 °FPassing clouds.8 mph82%29.92 "HgN/A
1:20 AM63 °FPassing clouds.6 mph77%29.95 "HgN/A
12:50 AM63 °FPassing clouds.5 mph77%29.95 "HgN/A
12:20 AM63 °FPassing clouds.6 mph77%29.95 "HgN/A
11:50 PM
Thu, Jul 28
64 °FClear.7 mph73%29.95 "Hg10 mi
11:20 PM64 °FClear.9 mph78%29.92 "Hg10 mi
10:50 PM64 °FPassing clouds.10 mph78%29.92 "HgN/A
10:20 PM64 °FScattered clouds.9 mph83%29.92 "HgN/A
9:50 PM64 °FSunny.9 mph83%29.92 "Hg10 mi
9:20 PM66 °FSunny.10 mph78%29.92 "Hg10 mi
8:50 PM68 °FScattered clouds.8 mph73%29.92 "HgN/A
8:20 PM68 °FPassing clouds.8 mph73%29.92 "HgN/A
7:50 PM68 °FSunny.10 mph73%29.92 "Hg10 mi
7:20 PM68 °FSunny.10 mph73%29.92 "Hg10 mi
6:50 PM70 °FScattered clouds.10 mph64%29.92 "HgN/A
6:20 PM70 °FPassing clouds.12 mph69%29.92 "HgN/A
5:50 PM70 °FPassing clouds.10 mph69%29.92 "HgN/A
5:20 PM70 °FSunny.12 mph69%29.95 "Hg10 mi
4:50 PM68 °FScattered clouds.13 mph69%29.95 "HgN/A
4:20 PM68 °FPassing clouds.10 mph73%29.95 "HgN/A
3:50 PM68 °FScattered clouds.10 mph73%29.95 "HgN/A
3:20 PM68 °FScattered clouds.12 mph73%29.98 "HgN/A
2:50 PM66 °FBroken clouds.10 mph78%29.98 "HgN/A
2:20 PM66 °FBroken clouds.12 mph78%29.98 "HgN/A
1:50 PM64 °FBroken clouds.10 mph83%29.98 "HgN/A
1:20 PM64 °FBroken clouds.10 mph83%29.98 "HgN/A
12:50 PM64 °FBroken clouds.10 mph83%30.01 "HgN/A
12:20 PM63 °FLight rain. Partly sunny.9 mph88%30.01 "Hg6 mi
11:50 AM64 °FPartly sunny.12 mph78%30.01 "HgN/A
11:20 AM64 °FPartly sunny.9 mph83%30.01 "HgN/A
10:50 AM63 °FPartly sunny.13 mph83%30.01 "HgN/A
10:20 AM64 °FPartly sunny.9 mph78%30.01 "HgN/A
9:50 AM64 °FPartly sunny.8 mph78%30.01 "HgN/A
9:20 AM64 °FScattered clouds.6 mph78%30.01 "HgN/A
Weather by CustomWeather, © 2016

See weather overviewHow to use our weather pages